LRCK Weather Reports


time (UTC)temp
C
wind
direction
speed
KPH
gust
KPH
rain 1hr
cm
rain 24hr
cm
rain mn
cm
humidity
%
barometer
mb
20260506184822 7 140 4.8 0.0 0.00 0.00 0.00 93 1017.0
20260506183317 7 140 4.8 0.0 0.00 0.00 0.00 93 1017.0
20260506181817 8 130 8.0 0.0 0.00 0.00 0.00 94 1016.0
20260506180317 8 130 8.0 0.0 0.00 0.00 0.00 94 1016.0
20260506174817 10 110 8.0 0.0 0.00 0.00 0.00 94 1016.0
20260506173317 10 110 8.0 0.0 0.00 0.00 0.00 94 1016.0
20260506171817 12 120 12.9 0.0 0.00 0.00 0.00 88 1016.0
20260506170317 12 120 12.9 0.0 0.00 0.00 0.00 88 1016.0
20260506164817 12 130 12.9 0.0 0.00 0.00 0.00 82 1016.0
20260506163317 12 130 12.9 0.0 0.00 0.00 0.00 82 1016.0
20260506161817 15 120 14.5 0.0 0.00 0.00 0.00 72 1016.0
20260506160317 15 120 14.5 0.0 0.00 0.00 0.00 72 1016.0
20260506154818 16 120 14.5 0.0 0.00 0.00 0.00 68 1016.0
20260506153317 16 120 14.5 0.0 0.00 0.00 0.00 68 1016.0
20260506151817 17 130 14.5 0.0 0.00 0.00 0.00 59 1016.0
20260506150323 17 130 14.5 0.0 0.00 0.00 0.00 59 1016.0
20260506144817 17 120 16.1 0.0 0.00 0.00 0.00 59 1016.0
20260506143329 17 120 16.1 0.0 0.00 0.00 0.00 59 1016.0
20260506141817 17 130 16.1 0.0 0.00 0.00 0.00 59 1016.0
20260506140432 17 130 16.1 0.0 0.00 0.00 0.00 59 1016.0
20260506134842 17 130 16.1 0.0 0.00 0.00 0.00 56 1016.0
20260506133317 17 130 16.1 0.0 0.00 0.00 0.00 56 1016.0
20260506131817 18 130 14.5 0.0 0.00 0.00 0.00 56 1016.0
20260506130326 18 130 14.5 0.0 0.00 0.00 0.00 56 1016.0
20260506124817 18 130 14.5 0.0 0.00 0.00 0.00 52 1016.0
20260506123317 18 130 14.5 0.0 0.00 0.00 0.00 52 1016.0
20260506121817 18 130 16.1 0.0 0.00 0.00 0.00 52 1017.0
20260506120317 18 130 16.1 0.0 0.00 0.00 0.00 52 1017.0
20260506114817 18 120 16.1 0.0 0.00 0.00 0.00 52 1017.0
20260506113317 18 120 16.1 0.0 0.00 0.00 0.00 52 1017.0
20260506111817 18 140 14.5 0.0 0.00 0.00 0.00 56 1017.0
20260506110317 18 140 14.5 0.0 0.00 0.00 0.00 56 1017.0
20260506104817 18 140 16.1 0.0 0.00 0.00 0.00 52 1017.0
20260506103317 18 140 16.1 0.0 0.00 0.00 0.00 52 1017.0
20260506101818 17 160 16.1 0.0 0.00 0.00 0.00 52 1017.0
20260506100317 17 160 16.1 0.0 0.00 0.00 0.00 52 1017.0
20260506094817 17 130 17.7 0.0 0.00 0.00 0.00 52 1017.0
20260506093317 17 130 17.7 0.0 0.00 0.00 0.00 52 1017.0
20260506091817 17 150 16.1 0.0 0.00 0.00 0.00 56 1017.0
20260506090317 17 150 16.1 0.0 0.00 0.00 0.00 56 1017.0
20260506084817 17 130 16.1 0.0 0.00 0.00 0.00 52 1017.0
20260506083317 17 130 16.1 0.0 0.00 0.00 0.00 52 1017.0
20260506081813 17 120 16.1 0.0 0.00 0.00 0.00 56 1017.0
20260506080317 17 120 16.1 0.0 0.00 0.00 0.00 56 1017.0
20260506073317 17 120 11.3 0.0 0.00 0.00 0.00 49 1017.0
20260506071817 16 150 8.0 0.0 0.00 0.00 0.00 55 1016.0
20260506070317 16 150 8.0 0.0 0.00 0.00 0.00 55 1016.0
20260506061817 13 150 12.9 0.0 0.00 0.00 0.00 63 1016.0
20260506060318 13 150 12.9 0.0 0.00 0.00 0.00 63 1016.0
20260506050331 12 260 4.8 0.0 0.00 0.00 0.00 59 1016.0
20260506044833 12 270 4.8 0.0 0.00 0.00 0.00 58 1015.0
20260506043321 12 270 4.8 0.0 0.00 0.00 0.00 58 1015.0
20260506041818 8 270 9.7 0.0 0.00 0.00 0.00 71 1015.0
20260506040317 8 270 9.7 0.0 0.00 0.00 0.00 71 1015.0
20260506034817 7 260 9.7 0.0 0.00 0.00 0.00 76 1015.0
20260506033317 7 260 9.7 0.0 0.00 0.00 0.00 76 1015.0
20260506031817 6 280 11.3 0.0 0.00 0.00 0.00 81 1015.0
20260506030316 6 280 11.3 0.0 0.00 0.00 0.00 81 1015.0
20260506024817 5 270 11.3 0.0 0.00 0.00 0.00 87 1015.0
20260506023317 5 270 11.3 0.0 0.00 0.00 0.00 87 1015.0
20260506021817 6 280 11.3 0.0 0.00 0.00 0.00 81 1015.0
20260506020317 6 280 11.3 0.0 0.00 0.00 0.00 81 1015.0
20260506014816 6 280 12.9 0.0 0.00 0.00 0.00 81 1015.0
20260506013317 6 280 12.9 0.0 0.00 0.00 0.00 81 1015.0
20260506011817 6 280 12.9 0.0 0.00 0.00 0.00 81 1015.0
20260506010317 6 280 12.9 0.0 0.00 0.00 0.00 81 1015.0
20260506004817 7 280 12.9 0.0 0.00 0.00 0.00 81 1015.0
20260506003433 7 280 12.9 0.0 0.00 0.00 0.00 81 1015.0
20260506001817 7 260 11.3 0.0 0.00 0.00 0.00 81 1015.0
20260506000318 7 260 11.3 0.0 0.00 0.00 0.00 81 1015.0
20260505234817 7 240 9.7 0.0 0.00 0.00 0.00 81 1015.0
20260505233316 7 240 9.7 0.0 0.00 0.00 0.00 81 1015.0
20260505231817 7 230 11.3 0.0 0.00 0.00 0.00 81 1015.0
20260505230317 7 230 11.3 0.0 0.00 0.00 0.00 81 1015.0
20260505224817 6 230 9.7 0.0 0.00 0.00 0.00 87 1016.0
20260505223317 6 230 9.7 0.0 0.00 0.00 0.00 87 1016.0
20260505221814 6 240 9.7 0.0 0.00 0.00 0.00 87 1016.0
20260505220317 6 240 9.7 0.0 0.00 0.00 0.00 87 1016.0
20260505214818 7 240 9.7 0.0 0.00 0.00 0.00 76 1016.0
20260505213317 7 240 9.7 0.0 0.00 0.00 0.00 76 1016.0
20260505211817 7 220 9.7 0.0 0.00 0.00 0.00 87 1016.0
20260505210317 7 220 9.7 0.0 0.00 0.00 0.00 87 1016.0
20260505204819 7 200 8.0 0.0 0.00 0.00 0.00 87 1016.0
20260505203316 7 200 8.0 0.0 0.00 0.00 0.00 87 1016.0
20260505201848 7 190 11.3 0.0 0.00 0.00 0.00 87 1016.0
20260505200317 7 190 11.3 0.0 0.00 0.00 0.00 87 1016.0
20260505194817 7 180 12.9 0.0 0.00 0.00 0.00 87 1016.0
20260505193317 7 180 12.9 0.0 0.00 0.00 0.00 87 1016.0
20260505191817 7 170 11.3 0.0 0.00 0.00 0.00 82 1016.0
20260505190316 7 170 11.3 0.0 0.00 0.00 0.00 82 1016.0